Location: Newark
(47.5833°N, 8.1500°E)
Time: 18:00:34
(UTC+00:00)

Transit 2A - Pass Details

Date: 04 November 2020
Orbit: 595 x 964 km, 66.7° (Epoch: 29 November)

Event Time Altitude Azimuth Distance (km) Brightness Sun altitude
Rises 22:43:55 0° 208° (SSW) 3,626 - -57.7°
Reaches altitude 10° 22:46:28 10° 207° (SSW) 2,692 - -57.8°
Maximum altitude 22:52:50 79° 121° (ESE) 976 - -57.9°
Drops below altitude 10° 22:59:03 10° 37° (NE) 2,627 - -58.1°
Sets 23:01:31 0° 36° (NE) 3,533 - -58.1°
